Weather Roundup
Issued by NWS

Home | Current Version | Previous Version | Text Only | Print | Product List | Glossary On
Versions: 1 2 3 4 5 6 7 8 9 10 11 12 13 14 15 16 17 18 19 20 21 22 23 24 25 26 27 28 29 30 31 32 33 34 35 36 37 38 39 40 41 42 43 44 45 46 47 48 49 50
808
NZUS93 KARX 181910
HRRWXR

CURRENT HOURLY OBSERVATIONS ACROSS
MUCH OF THE UPPER MISSISSIPPI VALLEY
NATIONAL WEATHER SERVICE LA CROSSE WI
200 PM CDT FRI AUG 18 2017


...SOUTHEAST MINNESOTA...


CITY           SKY/WX    TMP DP  RH WIND       PRES   REMARKS
ROCHESTER      LGT RAIN  64  63  96 W9        29.95R FOG
ROCHESTER/MAYO CLOUDY    64  62  93 W9        29.94R
WINONA         CLOUDY    70  61  73 NW7       29.90R
AUSTIN         DRIZZLE   63  61  94 NW8       29.95S
ALBERT LEA     CLOUDY    66  63  88 NW3       29.96R
DODGE CENTER   RAIN      64  61  88 W6        29.95S
PRESTON        CLOUDY    64  60  86 W9        29.94S
OWATONNA       DRIZZLE   64  61  88 SW5       29.94S
FARIBAULT      LGT RAIN  66  63  88 CALM      29.93S
$$

...ELSEWHERE IN MINNESOTA...


CITY           SKY/WX    TMP DP  RH WIND       PRES   REMARKS
MINNEAPOLIS    CLOUDY    65  61  87 SW8       29.92S
INTNL FALLS    MOSUNNY   77  58  51 NW7       29.81F
DULUTH         CLOUDY    69  61  75 W9        29.86S
RED WING       LGT RAIN  68  63  83 NW8       29.90S
REDWOOD FALLS  PTSUNNY   73  59  61 S3        29.91F
MANKATO        PTSUNNY   69  59  70 S7        29.93F
WORTHINGTON    SUNNY     75  60  59 SW6       29.93F
FAIRMONT       MOSUNNY   72  61  68 CALM      29.94F
$$

...SOUTHWEST WISCONSIN...


CITY           SKY/WX    TMP DP  RH WIND       PRES   REMARKS
LA CROSSE      CLOUDY    73  62  68 W7        29.88S
PRAIRIE DU CHI PTSUNNY   74  57  56 W6        29.89F
BOSCOBEL       CLOUDY    75  60  59 W7        29.89R
LONE ROCK      CLOUDY    74  61  63 NW8       29.87S
PLATTEVILLE    SUNNY     74  64  69 W10       29.91R
FORT MC COY    CLOUDY    70  60  72 NW6       29.88F
CAMP DOUGLAS   CLOUDY    70  61  73 W8        29.87F
MAUSTON-NEW LI CLOUDY    71  62  72 NW10      29.87R
VIROQUA        CLOUDY    68  60  75 NW6       29.90S
WIS DELLS      CLOUDY    74  55  52 NW13      29.87S
$$

...ELSEWHERE IN WISCONSIN...


CITY           SKY/WX    TMP DP  RH WIND       PRES   REMARKS
MILWAUKEE      CLOUDY    76  60  57 W13       29.84S
MADISON        PTSUNNY   76  61  59 W7G17     29.85F
GREEN BAY      CLOUDY    70  61  73 W13       29.81R
EAU CLAIRE     CLOUDY    70  63  78 W9        29.88R
BLACK RVR FLS  MOCLDY    70  59  69 W7        29.88S
MEDFORD        CLOUDY    66  57  72 NW8       29.87S
WAUSAU         CLOUDY    69  57  65 NW12      29.84S
WIS RAPIDS     CLOUDY    73  60  63 W12       29.87S
MARSHFIELD     CLOUDY    69  58  67 W12       29.86S
RICE LAKE      CLOUDY    70  61  74 W6        29.90S
$$

...NORTHEAST IOWA...


CITY           SKY/WX    TMP DP  RH WIND       PRES   REMARKS
WATERLOO       PTSUNNY   76  57  51 N7        29.91F
DUBUQUE        SUNNY     75  58  55 W6        29.91F
DECORAH        CLOUDY    68  61  77 VRB5      29.92S
MASON CITY     SUNNY     74  59  59 CALM      29.95F
CHARLES CITY   CLOUDY    70  63  78 VRB5      29.94F
OELWEIN        MOSUNNY   75  61  60 NW7       29.93S
$$

...ELSEWHERE IN IOWA...


CITY           SKY/WX    TMP DP  RH WIND       PRES   REMARKS
DES MOINES     MOSUNNY   87  60  40 W13       29.88F
IOWA CITY      SUNNY     80  63  55 W7        29.91F
FORT DODGE     MOSUNNY   75  63  64 E9        29.93F
MARSHALLTOWN   PTSUNNY   77  63  61 NE6       29.91F
CEDAR RAPIDS   MOSUNNY   78  61  55 S3        29.90F
$$

...NORTHERN ILLINOIS...


CITY           SKY/WX    TMP DP  RH WIND       PRES   REMARKS
CHICAGO-OHARE  PTSUNNY   80  60  50 W10       29.86F
CHICAGO-MIDWAY PTSUNNY   80  60  50 W15G21    29.86F
MOLINE         SUNNY     81  60  48 SW9       29.90F
ROCKFORD       MOSUNNY   78  63  59 W7        29.89F
PEORIA         SUNNY     84  60  44 VRB6G17   29.91F
$$

NOTE: "FAIR" INDICATES FEW OR NO CLOUDS BELOW 12,000 FEET WITH NO
SIGNIFICANT WEATHER AND/OR OBSTRUCTIONS TO VISIBILITY. WIND
SPEEDS ARE IN MILES-PER-HOUR.




USA.gov is the U.S. government's official web portal to all federal, state and local government web resources and services.